CW0214 Weather Reports


Display with metric or nautical units.
time (UTC)temp
F
wind
direction
speed
MPH
gust
MPH
rain 1hr
in
rain 24hr
in
rain mn
in
humidity
%
barometer
mb
20260903162405 105 215 3.0 5.0 0.00 0.00 0.00 18 1018.6
20260903161905 105 206 0.0 3.0 0.00 0.00 0.00 18 1018.6
20260903161406 105 206 0.0 5.0 0.00 0.00 0.00 18 1018.5
20260903160905 105 242 0.0 3.0 0.00 0.00 0.00 19 1018.5
20260903160405 104 304 0.0 5.0 0.00 0.00 0.00 18 1018.5
20260903155905 105 302 3.0 5.0 0.00 0.00 0.00 18 1018.7
20260903155405 105 219 0.0 3.0 0.00 0.00 0.00 18 1018.7
20260903154905 104 219 5.0 7.0 0.00 0.00 0.00 18 1018.7
20260903153905 104 286 1.0 5.0 0.00 0.00 0.00 18 1018.8
20260903153405 105 329 1.0 3.0 0.00 0.00 0.00 18 1018.7
20260903152905 106 161 0.0 1.0 0.00 0.00 0.00 18 1018.8
20260903152405 106 161 2.0 6.0 0.00 0.00 0.00 18 1018.9
20260903151905 105 125 0.0 1.0 0.00 0.00 0.00 18 1018.9
20260903151405 105 125 2.0 5.0 0.00 0.00 0.00 18 1019.0
20260903150906 105 171 2.0 7.0 0.00 0.00 0.00 18 1019.1
20260903150405 105 257 0.0 5.0 0.00 0.00 0.00 18 1019.2
20260903145905 105 253 1.0 5.0 0.00 0.00 0.00 18 1019.2
20260903145405 105 138 3.0 7.0 0.00 0.00 0.00 18 1019.2
20260903144905 105 169 1.0 6.0 0.00 0.00 0.00 19 1019.3
20260903144405 104 198 5.0 7.0 0.00 0.00 0.00 19 1019.3
20260903143405 103 201 5.0 8.0 0.00 0.00 0.00 19 1019.3
20260903142406 103 228 5.0 9.0 0.00 0.00 0.00 19 1019.7
20260903141905 103 204 4.0 7.0 0.00 0.00 0.00 19 1019.8
20260903141405 104 166 5.0 8.0 0.00 0.00 0.00 19 1019.8
20260903140905 104 230 2.0 8.0 0.00 0.00 0.00 19 1019.9
20260903140406 104 187 3.0 7.0 0.00 0.00 0.00 19 1019.9
20260903135905 104 259 3.0 6.0 0.00 0.00 0.00 19 1019.9
20260903134905 102 347 3.0 7.0 0.00 0.00 0.00 20 1019.9
20260903133905 103 215 5.0 8.0 0.00 0.00 0.00 20 1020.0
20260903133406 102 201 5.0 9.0 0.00 0.00 0.00 20 1020.0
20260903132905 102 224 5.0 8.0 0.00 0.00 0.00 20 1020.2
20260903132405 103 347 4.0 7.0 0.00 0.00 0.00 20 1020.2
20260903131905 103 217 4.0 6.0 0.00 0.00 0.00 20 1020.3
20260903131405 103 224 2.0 6.0 0.00 0.00 0.00 20 1020.3
20260903130905 103 110 0.0 2.0 0.00 0.00 0.00 20 1020.4
20260903125905 103 292 0.0 1.0 0.00 0.00 0.00 20 1020.4
20260903125405 101 292 0.0 1.0 0.00 0.00 0.00 21 1020.5
20260903124905 100 292 0.0 5.0 0.00 0.00 0.00 21 1020.6
20260903123904 100 286 2.0 6.0 0.00 0.00 0.00 21 1020.6
20260903122905 100 244 1.0 9.0 0.00 0.00 0.00 21 1020.6
20260903122405 101 174 7.0 9.0 0.00 0.00 0.00 21 1020.6
20260903121905 100 229 6.0 8.0 0.00 0.00 0.00 21 1020.7
20260903121405 100 194 2.0 6.0 0.00 0.00 0.00 21 1020.7
20260903120405 99 355 2.0 8.0 0.00 0.00 0.00 22 1020.7
20260903115405 99 298 3.0 9.0 0.00 0.00 0.00 22 1020.9
20260903114905 99 317 0.0 1.0 0.00 0.00 0.00 23 1020.9
20260903114405 99 288 3.0 7.0 0.00 0.00 0.00 23 1020.9
20260903113904 98 5 2.0 7.0 0.00 0.00 0.00 24 1020.9
20260903113405 98 313 3.0 7.0 0.00 0.00 0.00 24 1021.0
20260903112905 97 329 2.0 7.0 0.00 0.00 0.00 25 1021.0
20260903112405 96 332 0.0 7.0 0.00 0.00 0.00 26 1021.0
20260903111405 96 311 3.0 5.0 0.00 0.00 0.00 26 1021.0
20260903110904 95 316 0.0 7.0 0.00 0.00 0.00 28 1021.1
20260903110404 94 334 1.0 6.0 0.00 0.00 0.00 28 1021.1
20260903105905 94 10 3.0 6.0 0.00 0.00 0.00 29 1021.2
20260903105405 94 302 1.0 5.0 0.00 0.00 0.00 30 1021.2
20260903104905 93 329 2.0 6.0 0.00 0.00 0.00 31 1021.3
20260903104405 92 329 0.0 5.0 0.00 0.00 0.00 31 1021.2
20260903103905 92 233 1.0 6.0 0.00 0.00 0.00 32 1021.2
20260903103405 91 293 4.0 7.0 0.00 0.00 0.00 32 1021.2
20260903102904 91 312 5.0 8.0 0.00 0.00 0.00 33 1021.2
20260903102405 90 248 1.0 6.0 0.00 0.00 0.00 36 1021.2
20260903101905 89 277 2.0 7.0 0.00 0.00 0.00 37 1021.1
20260903101405 88 335 3.0 8.0 0.00 0.00 0.00 37 1021.2
20260903100905 87 271 4.0 7.0 0.00 0.00 0.00 38 1021.1
20260903100404 86 281 3.0 7.0 0.00 0.00 0.00 40 1021.0
20260903095905 86 298 3.0 8.0 0.00 0.00 0.00 41 1021.1
20260903094405 83 297 1.0 5.0 0.00 0.00 0.00 46 1021.0
20260903093904 82 182 2.0 6.0 0.00 0.00 0.00 46 1021.0
20260903093405 81 240 5.0 8.0 0.00 0.00 0.00 47 1021.0
20260903092905 81 249 5.0 9.0 0.00 0.00 0.00 48 1021.0
20260903092405 80 206 6.0 9.0 0.00 0.00 0.00 49 1021.1
20260903091905 80 256 6.0 9.0 0.00 0.00 0.00 48 1021.2
20260903091405 79 240 5.0 7.0 0.00 0.00 0.00 50 1021.2
20260903090404 77 240 5.0 8.0 0.00 0.00 0.00 52 1021.2
20260903085405 76 326 4.0 9.0 0.00 0.00 0.00 52 1021.3
20260903084905 76 350 2.0 7.0 0.00 0.00 0.00 54 1021.2
20260903084405 75 269 3.0 6.0 0.00 0.00 0.00 53 1021.2
20260903083905 75 294 3.0 6.0 0.00 0.00 0.00 54 1021.2
20260903083405 74 320 4.0 6.0 0.00 0.00 0.00 54 1021.3
20260903082904 74 311 3.0 6.0 0.00 0.00 0.00 56 1021.2
20260903082405 73 329 3.0 7.0 0.00 0.00 0.00 58 1021.3
20260903081905 72 320 1.0 6.0 0.00 0.00 0.00 60 1021.2
20260903081406 71 281 1.0 3.0 0.00 0.00 0.00 67 1021.3
20260903080905 71 281 2.0 7.0 0.00 0.00 0.00 63 1021.2
20260903080405 70 284 1.0 6.0 0.00 0.00 0.00 65 1021.2
20260903075904 70 289 4.0 8.0 0.00 0.00 0.00 66 1021.1
20260903075404 70 304 4.0 6.0 0.00 0.00 0.00 65 1021.1
20260903074904 70 253 5.0 8.0 0.00 0.00 0.00 65 1021.2
20260903074404 69 334 2.0 7.0 0.00 0.00 0.00 66 1021.2
20260903073904 69 271 5.0 7.0 0.00 0.00 0.00 66 1021.1
20260903073405 69 281 3.0 6.0 0.00 0.00 0.00 67 1021.1
20260903072405 69 169 0.0 1.0 0.00 0.00 0.00 72 1021.1
20260903071904 68 169 0.0 1.0 0.00 0.00 0.00 73 1021.0
20260903070905 66 169 0.0 1.0 0.00 0.00 0.00 83 1020.9
20260903065905 65 169 0.0 0.0 0.00 0.00 0.00 86 1021.0
20260903065405 64 169 0.0 0.0 0.00 0.00 0.00 86 1021.0
20260903064904 64 169 0.0 0.0 0.00 0.00 0.00 86 1020.9
20260903064405 64 169 0.0 0.0 0.00 0.00 0.00 86 1020.9
20260903063907 64 169 0.0 0.0 0.00 0.00 0.00 86 1020.9
20260903063404 64 169 0.0 0.0 0.00 0.00 0.00 86 1020.8
20260903062905 63 169 0.0 0.0 0.00 0.00 0.00 85 1020.8
20260903061905 63 169 0.0 0.0 0.00 0.00 0.00 85 1020.6
20260903061405 64 169 0.0 0.0 0.00 0.00 0.00 85 1020.6
20260903060905 64 169 0.0 0.0 0.00 0.00 0.00 85 1020.5
20260903060405 64 169 0.0 0.0 0.00 0.00 0.00 85 1020.4
20260903055904 64 169 0.0 0.0 0.00 0.00 0.00 85 1020.3
20260903055404 64 169 0.0 0.0 0.00 0.00 0.00 86 1020.3
20260903054905 64 169 0.0 0.0 0.00 0.00 0.00 86 1020.3
20260903054404 64 169 0.0 0.0 0.00 0.00 0.00 86 1020.2
20260903053405 64 169 0.0 0.0 0.00 0.00 0.00 86 1020.2
20260903052905 64 169 0.0 0.0 0.00 0.00 0.00 87 1020.2
20260903052404 64 169 0.0 0.0 0.00 0.00 0.00 86 1020.1
20260903051905 63 169 0.0 0.0 0.00 0.00 0.00 86 1020.1
20260903051405 63 169 0.0 0.0 0.00 0.00 0.00 86 1020.1
20260903050905 63 169 0.0 0.0 0.00 0.00 0.00 86 1020.1
20260903050404 63 169 0.0 0.0 0.00 0.00 0.00 86 1020.1
20260903045904 63 169 0.0 0.0 0.00 0.00 0.00 85 1020.0
20260903045405 63 169 0.0 0.0 0.00 0.00 0.00 84 1020.0
20260903044904 64 169 0.0 0.0 0.00 0.00 0.00 84 1019.9
20260903044405 64 169 0.0 0.0 0.00 0.00 0.00 85 1019.8
20260903043905 64 169 0.0 0.0 0.00 0.00 0.00 84 1019.8
20260903043405 65 169 0.0 0.0 0.00 0.00 0.00 82 1019.8
20260903042904 66 169 0.0 0.0 0.00 0.00 0.00 81 1019.7
20260903042404 67 169 0.0 0.0 0.00 0.00 0.00 80 1019.7
20260903041904 67 169 0.0 0.0 0.00 0.00 0.00 82 1019.7
20260903040904 66 169 0.0 0.0 0.00 0.00 0.00 82 1019.8
20260903040404 66 169 0.0 0.0 0.00 0.00 0.00 82 1019.8
20260903035905 67 169 0.0 0.0 0.00 0.00 0.00 82 1019.8
20260903035404 66 169 0.0 0.0 0.00 0.00 0.00 82 1019.8
20260903034905 66 169 0.0 0.0 0.00 0.00 0.00 83 1019.7
20260903034405 66 169 0.0 0.0 0.00 0.00 0.00 82 1019.8
20260903033905 66 169 0.0 0.0 0.00 0.00 0.00 83 1019.8
20260903033404 66 169 0.0 0.0 0.00 0.00 0.00 83 1019.8
20260903032905 66 169 0.0 0.0 0.00 0.00 0.00 82 1019.8
20260903032405 66 169 0.0 0.0 0.00 0.00 0.00 82 1019.8
20260903031905 67 169 0.0 0.0 0.00 0.00 0.00 83 1019.7
20260903031405 67 169 0.0 0.0 0.00 0.00 0.00 83 1019.8
20260903030904 66 169 0.0 0.0 0.00 0.00 0.00 84 1019.9
20260903030404 66 169 0.0 0.0 0.00 0.00 0.00 84 1019.8
20260903025904 66 169 0.0 0.0 0.00 0.00 0.00 83 1019.8
20260903024905 67 169 0.0 0.0 0.00 0.00 0.00 80 1019.9
20260903024404 68 169 0.0 0.0 0.00 0.00 0.00 79 1019.9
20260903023904 68 169 0.0 0.0 0.00 0.00 0.00 81 1019.9
20260903023405 68 169 0.0 0.0 0.00 0.00 0.00 82 1019.9
20260903022904 68 169 0.0 0.0 0.00 0.00 0.00 82 1019.9
20260903022404 68 169 0.0 0.0 0.00 0.00 0.00 82 1020.0
20260903021904 68 169 0.0 0.0 0.00 0.00 0.00 82 1020.0
20260903021405 67 169 0.0 0.0 0.00 0.00 0.00 82 1020.0
20260903020904 67 169 0.0 0.0 0.00 0.00 0.00 82 1019.9
20260903020405 68 169 0.0 0.0 0.00 0.00 0.00 81 1019.9
20260903015405 68 169 0.0 0.0 0.00 0.00 0.00 81 1019.9
20260903014904 68 169 0.0 0.0 0.00 0.00 0.00 81 1019.9
20260903014404 68 169 0.0 0.0 0.00 0.00 0.00 81 1019.9
20260903013905 68 169 0.0 0.0 0.00 0.00 0.00 81 1020.0
20260903013405 68 169 0.0 0.0 0.00 0.00 0.00 80 1020.0
20260903012404 68 169 0.0 0.0 0.00 0.00 0.00 80 1020.0
20260903011904 69 169 0.0 0.0 0.00 0.00 0.00 79 1020.1
20260903011404 69 169 0.0 0.0 0.00 0.00 0.00 79 1020.1
20260903010405 69 169 0.0 0.0 0.00 0.00 0.00 79 1020.2
20260903005904 69 169 0.0 0.0 0.00 0.00 0.00 79 1020.2
20260903004905 69 169 0.0 0.0 0.00 0.00 0.00 78 1020.3
20260903004405 70 169 0.0 0.0 0.00 0.00 0.00 78 1020.4
20260903003905 70 169 0.0 0.0 0.00 0.00 0.00 77 1020.4
20260903003405 70 169 0.0 0.0 0.00 0.00 0.00 77 1020.4
20260903002405 71 169 0.0 0.0 0.00 0.00 0.00 76 1020.3
20260903001905 71 169 0.0 0.0 0.00 0.00 0.00 76 1020.3
20260903001405 71 169 0.0 0.0 0.00 0.00 0.00 75 1020.2
20260903000905 71 169 0.0 0.0 0.00 0.00 0.00 75 1020.2
20260903000404 71 169 0.0 0.0 0.00 0.00 0.00 75 1020.3
20260902235904 71 169 0.0 0.0 0.00 0.00 0.00 75 1020.2
20260902235404 71 169 0.0 0.0 0.00 0.00 0.00 74 1020.2
20260902234904 72 169 0.0 0.0 0.00 0.00 0.00 74 1020.3
20260902234405 72 169 0.0 0.0 0.00 0.00 0.00 74 1020.2
20260902232905 72 169 0.0 0.0 0.00 0.00 0.00 74 1020.2
20260902231904 72 169 0.0 0.0 0.00 0.00 0.00 73 1020.1
20260902231404 72 169 0.0 0.0 0.00 0.00 0.00 72 1020.1
20260902230904 72 169 0.0 0.0 0.00 0.00 0.00 72 1020.2
20260902230404 73 169 0.0 1.0 0.00 0.00 0.00 71 1020.2
20260902225904 73 169 0.0 0.0 0.00 0.00 0.00 70 1020.2
20260902225405 74 169 1.0 5.0 0.00 0.00 0.00 68 1020.2
20260902224904 75 169 0.0 2.0 0.00 0.00 0.00 66 1020.1
20260902224405 75 169 3.0 6.0 0.00 0.00 0.00 66 1020.1
20260902223404 75 157 1.0 5.0 0.00 0.00 0.00 66 1020.1
20260902222905 75 157 2.0 5.0 0.00 0.00 0.00 65 1020.0
20260902222404 76 157 3.0 6.0 0.00 0.00 0.00 65 1020.1
20260902221904 76 138 2.0 5.0 0.00 0.00 0.00 64 1020.1
20260902221405 76 138 2.0 5.0 0.00 0.00 0.00 64 1020.1
20260902220904 76 138 1.0 3.0 0.00 0.00 0.00 64 1020.1
20260902220405 76 138 1.0 3.0 0.00 0.00 0.00 64 1020.1
20260902215904 76 138 0.0 2.0 0.00 0.00 0.00 63 1020.1
20260902215404 76 138 1.0 3.0 0.00 0.00 0.00 62 1020.1
20260902214904 77 138 0.0 2.0 0.00 0.00 0.00 62 1020.1
20260902214405 77 138 1.0 7.0 0.00 0.00 0.00 62 1020.1
20260902213904 77 126 2.0 7.0 0.00 0.00 0.00 61 1020.1
20260902213404 77 186 0.0 6.0 0.00 0.00 0.00 61 1020.1
20260902212905 77 187 1.0 5.0 0.00 0.00 0.00 60 1020.1
20260902211904 78 179 1.0 3.0 0.00 0.00 0.00 59 1020.1
20260902211404 78 179 1.0 5.0 0.00 0.00 0.00 59 1020.1
20260902210907 78 131 0.0 3.0 0.00 0.00 0.00 58 1020.0
20260902210404 78 122 2.0 6.0 0.00 0.00 0.00 58 1020.1
20260902205905 78 114 3.0 9.0 0.00 0.00 0.00 57 1020.0
20260902205404 78 161 4.0 9.0 0.00 0.00 0.00 57 1020.1
20260902204905 79 144 6.0 10.0 0.00 0.00 0.00 57 1020.1
20260902203904 79 131 3.0 8.0 0.00 0.00 0.00 56 1020.0
20260902203404 79 123 4.0 10.0 0.00 0.00 0.00 56 1020.0
20260902202904 79 134 3.0 12.0 0.00 0.00 0.00 55 1020.0
20260902202405 79 166 2.0 7.0 0.00 0.00 0.00 55 1020.0
20260902201404 80 142 2.0 10.0 0.00 0.00 0.00 54 1019.9
20260902200904 80 135 2.0 7.0 0.00 0.00 0.00 54 1019.7
20260902200404 80 225 2.0 7.0 0.00 0.00 0.00 54 1019.7
20260902195904 80 120 1.0 5.0 0.00 0.00 0.00 54 1019.6
20260902195405 81 173 4.0 12.0 0.00 0.00 0.00 53 1019.6
20260902194905 81 125 1.0 10.0 0.00 0.00 0.00 53 1019.5
20260902194405 81 150 4.0 12.0 0.00 0.00 0.00 53 1019.5
20260902193904 81 106 1.0 7.0 0.00 0.00 0.00 53 1019.4
20260902193404 82 160 0.0 8.0 0.00 0.00 0.00 53 1019.3
20260902192904 82 125 1.0 7.0 0.00 0.00 0.00 53 1019.3
20260902191406 83 136 1.0 9.0 0.00 0.00 0.00 53 1019.2
20260902190906 83 114 2.0 9.0 0.00 0.00 0.00 53 1019.3
20260902190406 84 104 1.0 12.0 0.00 0.00 0.00 53 1019.4
20260902185905 84 108 1.0 7.0 0.00 0.00 0.00 53 1019.4
20260902185405 84 106 5.0 8.0 0.00 0.00 0.00 53 1019.4
20260902183905 86 124 4.0 10.0 0.00 0.00 0.00 52 1019.4
20260902183405 86 126 2.0 8.0 0.00 0.00 0.00 51 1019.3
20260902182905 87 87 1.0 5.0 0.00 0.00 0.00 50 1019.3
20260902181905 88 129 3.0 12.0 0.00 0.00 0.00 48 1019.2
20260902181405 89 121 1.0 7.0 0.00 0.00 0.00 46 1019.2
20260902180405 92 182 1.0 7.0 0.00 0.00 0.00 35 1019.2
20260902175905 93 132 0.0 2.0 0.00 0.00 0.00 23 1019.1
20260902175405 93 132 0.0 2.0 0.00 0.00 0.00 23 1019.0
20260902174905 93 132 1.0 3.0 0.00 0.00 0.00 24 1019.0
20260902174405 93 154 1.0 7.0 0.00 0.00 0.00 24 1019.0
20260902173905 93 115 1.0 6.0 0.00 0.00 0.00 24 1019.0
20260902173405 93 138 1.0 6.0 0.00 0.00 0.00 24 1019.0
20260902172906 93 138 1.0 5.0 0.00 0.00 0.00 24 1019.0
20260902172405 93 117 0.0 5.0 0.00 0.00 0.00 25 1018.9
20260902171908 93 161 1.0 3.0 0.00 0.00 0.00 25 1019.0
20260902171405 93 162 1.0 3.0 0.00 0.00 0.00 25 1019.0
20260902170905 93 126 0.0 7.0 0.00 0.00 0.00 25 1019.1
20260902170405 93 134 0.0 2.0 0.00 0.00 0.00 25 1019.2
20260902165905 93 134 0.0 8.0 0.00 0.00 0.00 25 1019.3
20260902165405 93 132 1.0 5.0 0.00 0.00 0.00 25 1019.3
20260902164905 94 132 1.0 3.0 0.00 0.00 0.00 25 1019.3
20260902164405 94 129 1.0 7.0 0.00 0.00 0.00 27 1019.3
20260902163905 93 171 1.0 6.0 0.00 0.00 0.00 27 1019.3
20260902163405 93 151 3.0 7.0 0.00 0.00 0.00 26 1019.4
20260902162905 93 169 1.0 5.0 0.00 0.00 0.00 27 1019.4